Location: Newark
(17.9939°S, 31.0481°E)
Time: 04:20:46
(UTC+00:00)

Courier 1B - Pass Details

Date: 18 November 2019
Orbit: 963 x 1209 km, 28.3° (Epoch: 11 December)

Event Time Altitude Azimuth Distance (km) Brightness Sun altitude
Rises 20:35:53 0° 245° (WSW) 4,102 11.2 -49.4°
Reaches altitude 10° 20:38:45 10° 243° (WSW) 3,148 10.5 -49.7°
Enters shadow 20:40:02 16° 241° (WSW) 2,734 10.1 -49.8°
